SCO1463 KEWR-EGPF

Flight info

Callsign SCO1463
Flight time N/A
Altitude 39000
Route MERIT DCT HFD DCT PUT DCT BOS DCT EBONY N633A RIKAL/M083F390 DCT 53N050W 54N040W 55N030W 56N020W DCT PIKIL DCT SOVED/N0479F390 DCT REVNU DCT ROTEV DCT GOTNA DCT BLACA
Aircraft A359/H-SDE2E3GHIJ3J4J5LM1ORWXY/LB1D1

Departure

Time 2026-05-05 14:08
Airport Newark Liberty International Airport (KEWR)

Arrival

Time N/A
Airport Glasgow Airport (EGPF)
Time Latitude Longitude Altitude Speed Heading
2026-05-05 13:46 40.69138 -74.17364 28 ft 0 kts 322°
2026-05-05 13:58 40.69131 -74.17356 28 ft 3 kts 319°
2026-05-05 13:58 40.69115 -74.17331 20 ft 4 kts 289°
2026-05-05 13:58 40.69108 -74.17297 21 ft 4 kts 285°
2026-05-05 13:58 40.69098 -74.17266 27 ft 4 kts 320°
2026-05-05 13:59 40.69059 -74.17259 26 ft 0 kts 26°
2026-05-05 14:04 40.69061 -74.17258 28 ft 4 kts 25°
2026-05-05 14:04 40.69142 -74.17205 28 ft 16 kts 26°
2026-05-05 14:04 40.69249 -74.17137 27 ft 18 kts 26°
2026-05-05 14:04 40.69371 -74.17061 28 ft 20 kts 25°
2026-05-05 14:05 40.69505 -74.16979 28 ft 22 kts 25°
2026-05-05 14:05 40.69649 -74.16886 28 ft 24 kts 26°
2026-05-05 14:05 40.69805 -74.16787 28 ft 25 kts 15°
2026-05-05 14:05 40.69985 -74.16753 28 ft 27 kts
2026-05-05 14:06 40.70171 -74.16735 27 ft 26 kts
2026-05-05 14:06 40.70283 -74.16674 28 ft 14 kts 69°
2026-05-05 14:06 40.70290 -74.16531 28 ft 17 kts 89°
2026-05-05 14:06 40.70283 -74.16401 28 ft 15 kts 93°
2026-05-05 14:07 40.70320 -74.16210 29 ft 20 kts 113°
2026-05-05 14:07 40.70238 -74.16224 27 ft 13 kts 206°
2026-05-05 14:07 40.70036 -74.16352 30 ft 65 kts 205°
2026-05-05 14:07 40.69430 -74.16740 28 ft 126 kts 206°
2026-05-05 14:08 40.68530 -74.17314 396 ft 144 kts 207°
2026-05-05 14:08 40.67645 -74.17815 1116 ft 140 kts 206°
2026-05-05 14:08 40.66703 -74.18407 1378 ft 165 kts 211°
2026-05-05 14:08 40.65610 -74.19119 1784 ft 186 kts 211°
2026-05-05 14:09 40.64259 -74.19588 2133 ft 221 kts 188°
2026-05-05 14:09 40.62662 -74.18991 2485 ft 260 kts 150°
2026-05-05 14:09 40.61514 -74.17082 3169 ft 279 kts 114°
2026-05-05 14:09 40.61325 -74.14522 3939 ft 288 kts 80°
2026-05-05 14:10 40.62194 -74.12166 4691 ft 290 kts 46°
2026-05-05 14:10 40.63773 -74.10534 5445 ft 291 kts 28°
2026-05-05 14:10 40.65562 -74.09226 6212 ft 296 kts 26°
2026-05-05 14:10 40.67340 -74.07873 6970 ft 303 kts 30°
2026-05-05 14:11 40.69090 -74.06281 7747 ft 309 kts 36°
2026-05-05 14:11 40.70764 -74.04468 8595 ft 314 kts 40°
2026-05-05 14:11 40.72381 -74.02491 9413 ft 320 kts 43°
2026-05-05 14:11 40.73970 -74.00408 10180 ft 326 kts 44°
2026-05-05 14:12 40.75597 -73.98211 10606 ft 345 kts 44°
2026-05-05 14:12 40.77323 -73.95867 10938 ft 366 kts 44°
2026-05-05 14:12 40.79136 -73.93416 11500 ft 377 kts 44°
2026-05-05 14:12 40.80988 -73.90924 12252 ft 383 kts 43°
2026-05-05 14:13 40.82867 -73.88406 13029 ft 387 kts 43°
2026-05-05 14:13 40.84769 -73.85865 13838 ft 391 kts 42°
2026-05-05 14:13 40.86698 -73.83292 14549 ft 395 kts 42°
2026-05-05 14:13 40.88638 -73.80703 15260 ft 398 kts 42°
2026-05-05 14:14 40.90568 -73.78126 15961 ft 401 kts 42°
2026-05-05 14:14 40.92538 -73.75491 16663 ft 405 kts 42°
2026-05-05 14:14 40.94526 -73.72831 17366 ft 408 kts 43°
2026-05-05 14:14 40.96526 -73.70152 18080 ft 411 kts 43°
2026-05-05 14:15 40.98544 -73.67446 18728 ft 415 kts 43°
2026-05-05 14:15 41.00577 -73.64718 19362 ft 418 kts 43°
2026-05-05 14:15 41.02623 -73.61970 20053 ft 420 kts 43°
2026-05-05 14:15 41.04679 -73.59204 20723 ft 423 kts 43°
2026-05-05 14:16 41.06754 -73.56413 21364 ft 427 kts 43°
2026-05-05 14:16 41.08813 -73.53638 22002 ft 430 kts 43°
2026-05-05 14:16 41.10916 -73.50803 22635 ft 433 kts 43°
2026-05-05 14:16 41.13037 -73.47940 23256 ft 436 kts 43°
2026-05-05 14:17 41.15174 -73.45053 23825 ft 440 kts 43°
2026-05-05 14:17 41.17321 -73.42149 24328 ft 443 kts 44°
2026-05-05 14:17 41.19484 -73.39220 24848 ft 446 kts 44°
2026-05-05 14:17 41.21664 -73.36265 25392 ft 448 kts 45°
2026-05-05 14:18 41.23849 -73.33300 25920 ft 451 kts 45°
2026-05-05 14:18 41.26056 -73.30301 26404 ft 454 kts 45°
2026-05-05 14:18 41.28240 -73.27333 26922 ft 457 kts 45°
2026-05-05 14:18 41.30467 -73.24302 27439 ft 459 kts 46°
2026-05-05 14:19 41.32702 -73.21257 27929 ft 462 kts 46°
2026-05-05 14:19 41.34957 -73.18181 28405 ft 466 kts 46°
2026-05-05 14:19 41.37181 -73.15036 28865 ft 468 kts 51°
2026-05-05 14:19 41.39110 -73.11516 29312 ft 471 kts 58°
2026-05-05 14:20 41.40860 -73.07815 29748 ft 474 kts 60°
2026-05-05 14:20 41.42563 -73.04047 30169 ft 476 kts 60°
2026-05-05 14:20 41.44244 -73.00234 30527 ft 479 kts 61°
2026-05-05 14:20 41.45926 -72.96382 30879 ft 482 kts 61°
2026-05-05 14:21 41.47591 -72.92565 31210 ft 485 kts 61°
2026-05-05 14:21 41.49296 -72.88661 31555 ft 487 kts 60°
2026-05-05 14:21 41.51005 -72.84754 31896 ft 490 kts 60°
2026-05-05 14:21 41.52730 -72.80817 32224 ft 492 kts 60°
2026-05-05 14:22 41.54460 -72.76870 32553 ft 495 kts 60°
2026-05-05 14:22 41.56199 -72.72899 32858 ft 497 kts 60°
2026-05-05 14:22 41.57949 -72.68901 33153 ft 499 kts 60°
2026-05-05 14:22 41.59705 -72.64882 33433 ft 502 kts 60°
2026-05-05 14:23 41.61466 -72.60845 33703 ft 504 kts 60°
2026-05-05 14:23 41.63206 -72.56852 33975 ft 505 kts 59°
2026-05-05 14:23 41.64981 -72.52782 34234 ft 507 kts 59°
2026-05-05 14:23 41.66787 -72.48730 34471 ft 509 kts 58°
2026-05-05 14:24 41.68620 -72.44678 34747 ft 509 kts 58°
2026-05-05 14:24 41.70457 -72.40632 35099 ft 508 kts 58°
2026-05-05 14:24 41.72286 -72.36598 35431 ft 507 kts 58°
2026-05-05 14:24 41.74110 -72.32562 35735 ft 506 kts 58°
2026-05-05 14:25 41.75926 -72.28525 36026 ft 506 kts 58°
2026-05-05 14:25 41.77738 -72.24486 36303 ft 506 kts 58°
2026-05-05 14:25 41.79523 -72.20498 36587 ft 505 kts 58°
2026-05-05 14:25 41.81327 -72.16458 36865 ft 504 kts 58°
2026-05-05 14:26 41.83126 -72.12425 37154 ft 504 kts 58°
2026-05-05 14:26 41.84922 -72.08395 37412 ft 504 kts 58°
2026-05-05 14:26 41.86717 -72.04359 37669 ft 503 kts 58°
2026-05-05 14:26 41.88509 -72.00327 37917 ft 503 kts 58°
2026-05-05 14:27 41.90296 -71.96301 38164 ft 502 kts 58°
2026-05-05 14:27 41.92080 -71.92275 38390 ft 502 kts 58°
2026-05-05 14:27 41.93864 -71.88244 38606 ft 502 kts 58°
2026-05-05 14:27 41.95645 -71.84215 38770 ft 502 kts 58°
2026-05-05 14:28 41.97436 -71.80263 38915 ft 502 kts 56°
2026-05-05 14:28 41.99312 -71.76298 38939 ft 503 kts 56°
2026-05-05 14:28 42.03120 -71.68410 38940 ft 503 kts 55°
2026-05-05 14:29 42.06913 -71.60502 38939 ft 503 kts 56°
2026-05-05 14:29 42.10679 -71.52562 38935 ft 503 kts 56°
2026-05-05 14:30 42.14398 -71.44669 38939 ft 503 kts 56°
2026-05-05 14:30 42.18143 -71.36702 38931 ft 503 kts 56°
2026-05-05 14:31 42.21881 -71.28728 38913 ft 503 kts 56°
2026-05-05 14:31 42.25618 -71.20740 38925 ft 503 kts 56°
2026-05-05 14:32 42.29322 -71.12801 38926 ft 504 kts 56°
2026-05-05 14:32 42.33056 -71.04775 38906 ft 505 kts 56°
2026-05-05 14:33 42.37165 -70.97126 38910 ft 502 kts 45°
2026-05-05 14:33 42.41904 -70.90207 38918 ft 502 kts 44°
2026-05-05 14:34 42.46705 -70.83432 38904 ft 502 kts 44°
2026-05-05 14:34 42.51536 -70.76622 38906 ft 501 kts 44°
2026-05-05 14:35 42.56354 -70.69788 38906 ft 501 kts 44°
2026-05-05 14:35 42.61161 -70.62939 38901 ft 502 kts 44°
2026-05-05 14:36 42.65972 -70.56064 38900 ft 502 kts 44°
2026-05-05 14:36 42.70745 -70.49226 38893 ft 501 kts 44°
2026-05-05 14:37 42.75542 -70.42341 38899 ft 502 kts 44°
2026-05-05 14:37 42.80344 -70.35430 38893 ft 503 kts 44°
2026-05-05 14:38 42.85152 -70.28496 38896 ft 503 kts 44°
2026-05-05 14:38 42.89920 -70.21600 38899 ft 503 kts 44°
2026-05-05 14:39 42.94727 -70.14634 38896 ft 504 kts 44°
2026-05-05 14:39 42.99527 -70.07658 38897 ft 504 kts 44°
2026-05-05 14:40 43.04319 -70.00677 38900 ft 504 kts 44°
2026-05-05 14:40 43.09108 -69.93684 38895 ft 504 kts 44°
2026-05-05 14:41 43.13861 -69.86728 38903 ft 504 kts 44°
2026-05-05 14:41 43.18639 -69.79716 38912 ft 503 kts 44°
2026-05-05 14:42 43.23407 -69.72703 38909 ft 503 kts 44°
2026-05-05 14:42 43.28176 -69.65670 38906 ft 504 kts 44°
2026-05-05 14:43 43.32912 -69.58670 38903 ft 504 kts 45°
2026-05-05 14:43 43.37676 -69.51609 38901 ft 504 kts 45°
2026-05-05 14:44 43.42435 -69.44540 38906 ft 504 kts 45°
2026-05-05 14:44 43.47193 -69.37454 38905 ft 504 kts 45°
2026-05-05 14:45 43.51952 -69.30349 38910 ft 505 kts 45°
2026-05-05 14:45 43.56677 -69.23278 38900 ft 505 kts 45°
2026-05-05 14:46 43.61437 -69.16134 38894 ft 505 kts 45°
2026-05-05 14:46 43.66179 -69.09000 38909 ft 504 kts 45°
2026-05-05 14:47 43.70919 -69.01853 38903 ft 504 kts 45°
2026-05-05 14:47 43.75617 -68.94745 38902 ft 504 kts 45°
2026-05-05 14:48 43.80343 -68.87580 38903 ft 504 kts 45°
2026-05-05 14:48 43.85071 -68.80401 38904 ft 505 kts 45°
2026-05-05 14:49 43.89805 -68.73192 38903 ft 505 kts 45°
2026-05-05 14:49 43.94528 -68.65979 38911 ft 505 kts 45°
2026-05-05 14:50 43.99212 -68.58782 38907 ft 506 kts 47°
2026-05-05 14:50 44.03831 -68.51386 38906 ft 507 kts 49°
2026-05-05 14:51 44.08537 -68.44090 38910 ft 507 kts 44°
2026-05-05 14:51 44.13351 -68.36913 38911 ft 508 kts 44°
2026-05-05 14:52 44.18116 -68.29671 38912 ft 507 kts 45°
2026-05-05 14:52 44.22808 -68.22417 38911 ft 506 kts 45°
2026-05-05 14:53 44.27509 -68.15097 38921 ft 507 kts 45°
2026-05-05 14:53 44.32212 -68.07758 38908 ft 507 kts 45°
2026-05-05 14:54 44.36917 -68.00402 38909 ft 507 kts 45°
2026-05-05 14:54 44.41586 -67.93084 38915 ft 507 kts 45°
2026-05-05 14:55 44.46279 -67.85711 38919 ft 507 kts 45°
2026-05-05 14:55 44.50966 -67.78328 38920 ft 507 kts 45°
2026-05-05 14:56 44.55650 -67.70929 38919 ft 507 kts 45°
2026-05-05 14:56 44.60301 -67.63564 38917 ft 507 kts 45°
2026-05-05 14:57 44.64978 -67.56137 38917 ft 507 kts 45°
2026-05-05 14:57 44.69646 -67.48707 38924 ft 507 kts 45°
2026-05-05 14:58 44.74303 -67.41271 38923 ft 506 kts 45°
2026-05-05 14:58 44.78923 -67.33878 38919 ft 506 kts 45°
2026-05-05 14:59 44.83574 -67.26416 38913 ft 507 kts 46°
2026-05-05 14:59 44.88213 -67.18952 38914 ft 507 kts 46°
2026-05-05 15:00 44.92088 -67.12756 38917 ft 506 kts 44°
2026-05-05 15:00 44.97795 -67.04407 38927 ft 505 kts 42°
2026-05-05 15:01 45.02690 -66.97378 38920 ft 505 kts 42°
2026-05-05 15:01 45.07583 -66.90240 38907 ft 505 kts 43°
2026-05-05 15:02 45.12449 -66.83064 38904 ft 505 kts 43°
2026-05-05 15:02 45.17303 -66.75875 38917 ft 505 kts 43°
2026-05-05 15:03 45.22159 -66.68665 38911 ft 505 kts 43°
2026-05-05 15:03 45.26980 -66.61493 38901 ft 506 kts 43°
2026-05-05 15:04 45.31828 -66.54260 38900 ft 505 kts 43°
2026-05-05 15:04 45.36658 -66.47037 38900 ft 504 kts 43°
2026-05-05 15:05 45.43864 -66.36223 38905 ft 504 kts 43°
2026-05-05 15:06 45.48677 -66.28978 38903 ft 504 kts 43°
2026-05-05 15:06 45.53497 -66.21702 38901 ft 504 kts 43°
2026-05-05 15:07 45.58307 -66.14421 38902 ft 504 kts 43°
2026-05-05 15:07 45.63116 -66.07124 38894 ft 504 kts 43°
2026-05-05 15:08 45.67887 -65.99862 38886 ft 504 kts 43°
2026-05-05 15:08 45.72683 -65.92546 38886 ft 504 kts 43°
2026-05-05 15:09 45.77479 -65.85207 38884 ft 504 kts 43°
2026-05-05 15:09 45.82239 -65.77906 38890 ft 505 kts 43°
2026-05-05 15:10 45.87024 -65.70545 38858 ft 505 kts 44°
2026-05-05 15:10 45.91808 -65.63167 38849 ft 505 kts 44°
2026-05-05 15:11 45.96587 -65.55776 38868 ft 505 kts 44°
2026-05-05 15:11 46.01362 -65.48372 38853 ft 505 kts 44°
2026-05-05 15:12 46.06108 -65.40991 38851 ft 505 kts 44°
2026-05-05 15:12 46.10875 -65.33557 38840 ft 506 kts 44°
2026-05-05 15:13 46.15642 -65.26103 38840 ft 506 kts 44°
2026-05-05 15:13 46.20371 -65.18690 38839 ft 505 kts 44°
2026-05-05 15:14 46.25128 -65.11212 38837 ft 505 kts 44°
2026-05-05 15:14 46.29883 -65.03716 38849 ft 506 kts 44°
2026-05-05 15:15 46.34634 -64.96206 38833 ft 506 kts 44°
2026-05-05 15:15 46.39354 -64.88723 38833 ft 507 kts 44°
2026-05-05 15:16 46.44099 -64.81179 38825 ft 507 kts 44°
2026-05-05 15:16 46.48838 -64.73624 38820 ft 506 kts 44°
2026-05-05 15:17 46.53575 -64.66052 38822 ft 506 kts 44°
2026-05-05 15:17 46.58304 -64.58471 38817 ft 506 kts 44°
2026-05-05 15:18 46.62994 -64.50933 38818 ft 506 kts 45°
2026-05-05 15:18 46.67716 -64.43321 38815 ft 506 kts 45°
2026-05-05 15:19 46.72425 -64.35708 38815 ft 506 kts 45°
2026-05-05 15:19 46.77136 -64.28070 38819 ft 506 kts 45°
2026-05-05 15:20 46.81838 -64.20426 38827 ft 506 kts 45°
2026-05-05 15:20 46.86509 -64.12811 38826 ft 507 kts 45°
2026-05-05 15:21 46.91213 -64.05121 38826 ft 507 kts 45°
2026-05-05 15:21 46.95905 -63.97428 38828 ft 507 kts 45°
2026-05-05 15:22 47.00576 -63.89747 38813 ft 509 kts 45°
2026-05-05 15:22 47.05282 -63.81987 38812 ft 509 kts 45°
2026-05-05 15:23 47.09977 -63.74223 38815 ft 509 kts 45°
2026-05-05 15:23 47.14666 -63.66446 38816 ft 510 kts 45°
2026-05-05 15:24 47.19359 -63.58641 38814 ft 511 kts 45°
2026-05-05 15:24 47.24027 -63.50854 38812 ft 511 kts 45°
2026-05-05 15:25 47.28727 -63.42990 38818 ft 511 kts 45°
2026-05-05 15:25 47.33426 -63.35106 38820 ft 512 kts 45°
2026-05-05 15:26 47.38127 -63.27194 38823 ft 513 kts 45°
2026-05-05 15:26 47.42795 -63.19315 38840 ft 513 kts 45°
2026-05-05 15:27 47.47493 -63.11363 38831 ft 514 kts 45°
2026-05-05 15:27 47.52189 -63.03391 38830 ft 514 kts 45°
2026-05-05 15:28 47.56879 -62.95403 38817 ft 514 kts 45°
2026-05-05 15:28 47.61565 -62.87400 38837 ft 514 kts 45°
2026-05-05 15:29 47.66216 -62.79432 38835 ft 514 kts 45°
2026-05-05 15:29 47.70892 -62.71398 38835 ft 514 kts 45°
2026-05-05 15:30 47.75566 -62.63343 38835 ft 514 kts 45°
2026-05-05 15:30 47.80232 -62.55278 38833 ft 514 kts 45°
2026-05-05 15:31 47.84860 -62.47255 38834 ft 514 kts 45°
2026-05-05 15:31 47.89516 -62.39159 38843 ft 514 kts 46°
2026-05-05 15:32 47.94164 -62.31052 38846 ft 515 kts 46°
2026-05-05 15:32 47.98811 -62.22924 38843 ft 515 kts 46°
2026-05-05 15:33 48.03455 -62.14774 38836 ft 515 kts 46°
2026-05-05 15:33 48.08058 -62.06671 38862 ft 515 kts 46°
2026-05-05 15:34 48.12684 -61.98505 38838 ft 515 kts 46°
2026-05-05 15:34 48.17305 -61.90321 38845 ft 514 kts 46°
2026-05-05 15:35 48.21922 -61.82122 38842 ft 514 kts 46°
2026-05-05 15:35 48.26500 -61.73965 38845 ft 514 kts 46°
2026-05-05 15:36 48.31102 -61.65740 38839 ft 514 kts 46°
2026-05-05 15:36 48.35694 -61.57508 38838 ft 514 kts 46°
2026-05-05 15:37 48.40279 -61.49263 38833 ft 514 kts 46°
2026-05-05 15:37 48.44825 -61.41063 38840 ft 513 kts 47°
2026-05-05 15:38 48.49391 -61.32801 38839 ft 513 kts 47°
2026-05-05 15:38 48.53947 -61.24532 38824 ft 513 kts 47°
2026-05-05 15:39 48.58491 -61.16260 38832 ft 513 kts 47°
2026-05-05 15:39 48.63006 -61.08015 38829 ft 512 kts 47°
2026-05-05 15:40 48.67532 -60.99723 38828 ft 511 kts 47°
2026-05-05 15:40 48.72051 -60.91419 38827 ft 511 kts 47°
2026-05-05 15:41 48.76565 -60.83098 38837 ft 511 kts 48°
2026-05-05 15:41 48.81083 -60.74744 38830 ft 512 kts 48°
2026-05-05 15:42 48.85564 -60.66433 38828 ft 512 kts 48°
2026-05-05 15:42 48.90064 -60.58059 38839 ft 512 kts 48°
2026-05-05 15:43 48.94566 -60.49658 38821 ft 513 kts 48°
2026-05-05 15:43 48.99065 -60.41232 38820 ft 513 kts 48°
2026-05-05 15:44 49.03530 -60.32844 38813 ft 513 kts 48°
2026-05-05 15:44 49.08018 -60.24388 38816 ft 513 kts 48°
2026-05-05 15:45 49.12500 -60.15914 38807 ft 513 kts 48°
2026-05-05 15:45 49.16979 -60.07420 38802 ft 513 kts 48°
2026-05-05 15:46 49.21441 -59.98930 38801 ft 513 kts 49°
2026-05-05 15:46 49.25877 -59.90460 38800 ft 514 kts 49°
2026-05-05 15:47 49.30346 -59.81902 38800 ft 515 kts 49°
2026-05-05 15:47 49.34811 -59.73329 38801 ft 515 kts 49°
2026-05-05 15:48 49.39224 -59.64671 38795 ft 515 kts 49°
2026-05-05 15:48 49.43658 -59.56128 38791 ft 516 kts 48°
2026-05-05 15:49 49.48151 -59.47505 38791 ft 517 kts 48°
2026-05-05 15:49 49.52627 -59.38831 38790 ft 517 kts 49°
2026-05-05 15:50 49.57082 -59.30135 38793 ft 517 kts 49°
2026-05-05 15:50 49.61504 -59.21469 38790 ft 518 kts 49°
2026-05-05 15:51 49.65953 -59.12722 38783 ft 518 kts 49°
2026-05-05 15:51 49.70393 -59.03965 38780 ft 518 kts 49°
2026-05-05 15:52 49.74820 -58.95206 38778 ft 517 kts 49°
2026-05-05 15:52 49.79213 -58.86486 38774 ft 517 kts 49°
2026-05-05 15:53 49.83624 -58.77701 38765 ft 516 kts 49°
2026-05-05 15:53 49.88025 -58.68908 38769 ft 517 kts 49°
2026-05-05 15:54 49.92423 -58.60089 38760 ft 516 kts 50°
2026-05-05 15:54 49.96768 -58.51348 38755 ft 515 kts 50°
2026-05-05 15:55 50.01143 -58.42519 38755 ft 515 kts 50°
2026-05-05 15:55 50.05511 -58.33674 38755 ft 515 kts 50°
2026-05-05 15:56 50.09874 -58.24810 38747 ft 517 kts 50°
2026-05-05 15:56 50.14206 -58.15978 38747 ft 516 kts 50°
2026-05-05 15:57 50.18562 -58.07066 38745 ft 516 kts 51°
2026-05-05 15:57 50.22904 -57.98155 38741 ft 516 kts 51°
2026-05-05 15:58 50.27246 -57.89211 38723 ft 518 kts 51°
2026-05-05 15:58 50.31594 -57.80227 38725 ft 518 kts 51°
2026-05-05 15:59 50.35904 -57.71289 38708 ft 518 kts 51°
2026-05-05 15:59 50.40238 -57.62271 38692 ft 519 kts 51°
2026-05-05 16:00 50.44577 -57.53212 38689 ft 520 kts 51°
2026-05-05 16:00 50.48918 -57.44117 38678 ft 520 kts 52°
2026-05-05 16:01 50.53219 -57.35072 38674 ft 520 kts 51°
2026-05-05 16:01 50.57547 -57.25941 38661 ft 521 kts 52°
2026-05-05 16:02 50.61875 -57.16779 38640 ft 521 kts 52°
2026-05-05 16:02 50.66197 -57.07596 38624 ft 521 kts 52°
2026-05-05 16:03 50.70481 -56.98462 38620 ft 522 kts 52°
2026-05-05 16:03 50.74812 -56.89197 38607 ft 528 kts 52°
2026-05-05 16:04 50.79175 -56.79831 38599 ft 529 kts 51°
2026-05-05 16:04 50.83515 -56.70477 38599 ft 528 kts 51°
2026-05-05 16:05 50.87851 -56.61099 38594 ft 526 kts 52°
2026-05-05 16:05 50.92109 -56.51854 38581 ft 521 kts 53°
2026-05-05 16:06 50.96368 -56.42579 38585 ft 520 kts 52°
2026-05-05 16:06 51.00617 -56.33292 38583 ft 520 kts 53°
2026-05-05 16:07 51.04861 -56.23984 38584 ft 520 kts 53°
2026-05-05 16:07 51.09097 -56.14657 38578 ft 520 kts 53°
2026-05-05 16:08 51.13298 -56.05374 38579 ft 520 kts 53°
2026-05-05 16:08 51.17516 -55.96021 38580 ft 520 kts 53°
2026-05-05 16:09 51.21728 -55.86650 38594 ft 520 kts 53°
2026-05-05 16:09 51.25932 -55.77260 38588 ft 519 kts 53°
2026-05-05 16:10 51.30094 -55.67930 38593 ft 520 kts 53°
2026-05-05 16:10 51.34281 -55.58512 38594 ft 519 kts 53°
2026-05-05 16:11 51.38459 -55.49079 38595 ft 520 kts 54°
2026-05-05 16:12 51.46770 -55.30213 38594 ft 520 kts 54°
2026-05-05 16:13 51.57163 -55.06426 38608 ft 523 kts 54°
2026-05-05 16:13 51.61323 -54.96843 38609 ft 524 kts 54°
2026-05-05 16:14 51.69609 -54.77647 38600 ft 524 kts 54°
2026-05-05 16:15 51.77900 -54.58296 38606 ft 524 kts 54°
2026-05-05 16:16 51.84651 -54.37530 38601 ft 521 kts 64°
2026-05-05 16:17 51.89199 -54.21658 38600 ft 518 kts 65°
2026-05-05 16:18 51.93724 -54.05823 38603 ft 519 kts 65°
2026-05-05 16:19 51.98258 -53.89903 38603 ft 519 kts 65°
2026-05-05 16:19 52.02787 -53.73893 38608 ft 520 kts 65°
2026-05-05 16:20 52.08769 -53.52575 38609 ft 520 kts 66°
2026-05-05 16:22 52.15728 -53.27524 38611 ft 521 kts 66°
2026-05-05 16:23 52.22135 -53.04221 38611 ft 521 kts 66°
2026-05-05 16:23 52.26061 -52.89824 38617 ft 522 kts 66°
2026-05-05 16:24 52.28995 -52.79005 38617 ft 523 kts 66°
2026-05-05 16:25 52.33862 -52.60948 38621 ft 522 kts 67°
2026-05-05 16:25 52.37731 -52.46491 38619 ft 521 kts 67°
2026-05-05 16:26 52.43506 -52.24741 38618 ft 521 kts 67°
2026-05-05 16:27 52.46378 -52.13847 38616 ft 521 kts 67°
2026-05-05 16:27 52.49236 -52.02952 38628 ft 521 kts 67°
2026-05-05 16:28 52.52070 -51.92100 38628 ft 521 kts 67°
2026-05-05 16:28 52.54913 -51.81161 38628 ft 521 kts 67°
2026-05-05 16:29 52.57746 -51.70204 38631 ft 521 kts 68°
2026-05-05 16:29 52.60552 -51.59301 38635 ft 519 kts 68°
2026-05-05 16:30 52.63327 -51.48462 38637 ft 516 kts 68°
2026-05-05 16:30 52.66104 -51.37566 38651 ft 515 kts 68°
2026-05-05 16:31 52.68868 -51.26667 38643 ft 516 kts 68°
2026-05-05 16:31 52.71617 -51.15775 38653 ft 515 kts 68°
2026-05-05 16:32 52.74344 -51.04919 38654 ft 514 kts 68°
2026-05-05 16:32 52.77071 -50.94006 38654 ft 514 kts 68°
2026-05-05 16:33 52.79790 -50.83072 38658 ft 514 kts 68°
2026-05-05 16:33 52.82497 -50.72133 38672 ft 514 kts 69°
2026-05-05 16:34 52.85195 -50.61179 38670 ft 515 kts 69°
2026-05-05 16:34 52.87862 -50.50293 38670 ft 516 kts 69°
2026-05-05 16:35 52.90547 -50.39280 38670 ft 516 kts 69°
2026-05-05 16:35 52.93225 -50.28241 38685 ft 516 kts 69°
2026-05-05 16:36 52.95887 -50.17211 38683 ft 516 kts 69°
2026-05-05 16:36 52.98534 -50.06186 38684 ft 520 kts 70°
2026-05-05 16:37 53.00739 -49.94770 38828 ft 519 kts 77°
2026-05-05 16:37 53.01622 -49.88950 39056 ft 517 kts 78°
2026-05-05 16:37 53.02466 -49.83168 39290 ft 515 kts 78°
2026-05-05 16:38 53.03292 -49.77386 39489 ft 514 kts 78°
2026-05-05 16:38 53.04107 -49.71616 39720 ft 512 kts 78°
2026-05-05 16:38 53.04903 -49.65956 39935 ft 509 kts 79°
2026-05-05 16:38 53.05706 -49.60238 40158 ft 507 kts 78°
2026-05-05 16:39 53.06506 -49.54546 40388 ft 504 kts 79°
2026-05-05 16:39 53.07301 -49.48876 40628 ft 502 kts 79°
2026-05-05 16:39 53.08881 -49.37552 40723 ft 506 kts 79°
2026-05-05 16:40 53.10471 -49.26066 40722 ft 512 kts 79°
2026-05-05 16:40 53.12067 -49.14465 40732 ft 516 kts 79°
2026-05-05 16:41 53.13651 -49.02866 40731 ft 517 kts 79°
2026-05-05 16:41 53.15229 -48.91213 40740 ft 516 kts 79°
2026-05-05 16:42 53.16794 -48.79566 40737 ft 515 kts 79°
2026-05-05 16:42 53.18338 -48.67970 40750 ft 516 kts 79°
2026-05-05 16:43 53.19882 -48.56288 40750 ft 517 kts 79°
2026-05-05 16:43 53.21419 -48.44569 40752 ft 516 kts 80°
2026-05-05 16:44 53.22939 -48.32881 40768 ft 515 kts 80°
2026-05-05 16:44 53.24445 -48.21206 40769 ft 514 kts 80°
2026-05-05 16:45 53.25928 -48.09606 40772 ft 514 kts 80°
2026-05-05 16:45 53.27410 -47.97919 40785 ft 514 kts 80°
2026-05-05 16:46 53.28880 -47.86225 40779 ft 514 kts 80°
2026-05-05 16:46 53.30341 -47.74516 40790 ft 514 kts 81°
2026-05-05 16:47 53.31778 -47.62886 40798 ft 514 kts 81°
2026-05-05 16:47 53.33214 -47.51174 40806 ft 514 kts 81°
2026-05-05 16:48 53.34637 -47.39468 40804 ft 514 kts 81°
2026-05-05 16:48 53.36049 -47.27742 40808 ft 514 kts 81°
2026-05-05 16:49 53.37437 -47.16117 40833 ft 512 kts 81°
2026-05-05 16:49 53.38823 -47.04407 40824 ft 512 kts 81°